Location: ????????
(60.4333°N, 46.4710°E)
Time: 04:16:49
(UTC+00:00)

Cosmos 2237 Rocket - Pass Details

Date: 25 November 2020
Orbit: 833 x 851 km, 71.0° (Epoch: 19 January)

Event Time Altitude Azimuth Distance (km) Brightness Sun altitude
Rises 15:48:19 0° 228° (SW) 3,378 5.9 -26.3°
Reaches altitude 10° 15:50:46 10° 230° (SW) 2,449 5.2 -26.6°
Maximum altitude 15:56:23 72° 315° (NW) 887 2.3 -27.3°
Enters shadow 15:57:20 59° 11° (NNE) 970 2.4 -27.4°
